sat.trackr.live / text

‹ back to catalog

STARLINK-3200

NORAD 49753 · 2021-115AF

PAYLOAD ACTIVE UNKNOWN

§ Identity

Operator
Country
US
Launch date
2021-12-02
Launch site
AFETR
Launch vehicle
Mass (kg)
RCS (m²)

Purposes: comms

External: N2YO · Heavens-Above · Gunter

§ Orbital elements

Epoch: 2026-09-19T19:03:45.967392Z

Period
93.85 min
Inclination
53.1605°
Eccentricity
0.0001200
Mean motion
15.34332388 rev/d
Perigee alt
462.1 km
Apogee alt
463.7 km
Semi-major
6,841.0 km
B*
4.0093e-4
RAAN
345.0494°
Arg perigee
96.0662°
Mean anomaly
264.0478°
Rev number
26,501

§ Raw data

STARLINK-32001 49753U 21115AF  26262.79428203  .00013165  00000+0  40093-3 0  99952 49753  53.1605 345.0494 0001200  96.0662 264.0478 15.34332388265016

JSON: /api/v1/satellites/49753 · /tle

For live sub-satellite position, see the globe view (requires WebGL).

§ Visibility from observer

Set your observer location to see the next 7 days of passes ≥ 10°. The values pass through the URL so the page stays shareable.

No JS? Fill the form by hand. The geolocation button needs JavaScript.